星链-31613 (STARLINK-31613 )

导读 | 星芒AI

STARLINK-31613 是 SpaceX Starlink 项目中的一颗低轨道互联网卫星,属于第三代星链卫星群。该卫星于2023年发射,旨在为全球用户提供高速、低延迟的宽带互联网服务。它运行在约550公里高度的近地轨道,配备先进通信设备,支持Ka/Ku波段数据传输。作为星链计划的重要组成部分,STARLINK-31613 有助于扩大覆盖范围,提升网络容量和稳定性,特别是在偏远和网络基础设施薄弱的地区。

基本信息
目录编号:
59431
目录名称:
STARLINK-31613
国际标识:
2024-065L
轨道中心:
EARTH
卫星名称:
星链-31613
卫星全名:
星链-31613 (STARLINK-31613 )
卫星状态:
在轨 (已飞行573 天)
发射日期:
2024-04-07 UTC
国别 :
美国 (US)
星等 :
--
轨道信息
数据来源 国际轨道数据
星历时间: 2025-11-01T04:15:46+0800
23小时前
查看轨道信息
半长轴: 6853.426km
偏心率: 0.0000964
轨道倾角: 53.159°
近地点辐角 107.793°
升交点赤经 160.071°
平近点角 252.318°
近地点: 474.63km
远地点: 475.952km
周期: 94.107分钟
每日圈数: 15.301754
详细信息
固有亮度:
5
最大亮度:
1.5
卫星平台:
Starlink v2.0 mini
覆盖范围:
全球
运营商:
太空探索技术公司
运营商所在国:
美国
制造商(研发单位):
太空探索技术公司
制造商所在国:
美国
使用方式:
暂无
卫星简介
星链(Starlink)计划是由太空探索技术公司(SpaceX)提出的一个巨型低轨卫星互联网星座项目,计划在2019年至2024年间在太空搭建由约1.2万颗卫星组成的“星链”网络,其中1584颗将部署在地球上空550千米处的近地轨道,并从2020年开始工作。该卫星仍在工作。
2D轨道图
3D轨道图
轨道高度分析图
轨道倾角分析图
轨道综合分析图
查看轨道综合分析图